• In Deutschland
  • Länderverzeichnis
  • Für 7 Tage
  • Wassertemperatur
  • Satellitenkarten
  • Wetterkarte
  • Widgets
  • user-avatar
    Anmelden

    Stündliche Wetter Finsterbergen

    Heute, 25 September, Dienstag

    Zeit Temperatur Niederschläge Wind Luftdruck Luftfeuchtigkeit
    00:00 +3°C° 0 mm 2 m/S 728 mmHg 93%
    01:00 +3°C° 0 mm 2 m/S 729 mmHg 93%
    02:00 +2°C° 0 mm 2 m/S 729 mmHg 94%
    03:00 +2°C° 0 mm 2 m/S 729 mmHg 94%
    04:00 +2°C° 0 mm 2 m/S 729 mmHg 94%
    05:00 +3°C° 0 mm 1 m/S 730 mmHg 93%
    06:00 +3°C° 0 mm 1 m/S 730 mmHg 93%
    07:00 +4°C° 0 mm 1 m/S 730 mmHg 89%
    08:00 +5°C° 0 mm 2 m/S 731 mmHg 80%
    09:00 +7°C° 0 mm 2 m/S 731 mmHg 72%
    10:00 +9°C° 0 mm 2 m/S 732 mmHg 63%
    11:00 +10°C° 0 mm 2 m/S 732 mmHg 59%
    12:00 +10°C° 0 mm 2 m/S 732 mmHg 55%
    13:00 +12°C° 0 mm 2 m/S 732 mmHg 51%
    14:00 +12°C° 0 mm 2 m/S 732 mmHg 51%
    15:00 +12°C° 0 mm 2 m/S 731 mmHg 52%
    16:00 +12°C° 0 mm 1 m/S 731 mmHg 52%
    17:00 +10°C° 0 mm 1 m/S 731 mmHg 59%
    18:00 +8°C° 0 mm 1 m/S 731 mmHg 65%
    19:00 +7°C° 0 mm 1 m/S 731 mmHg 72%
    20:00 +6°C° 0 mm 1 m/S 731 mmHg 74%
    21:00 +6°C° 0 mm 1 m/S 731 mmHg 75%
    22:00 +5°C° 0 mm 1 m/S 731 mmHg 77%
    23:00 +5°C° 0 mm 1 m/S 731 mmHg 78%

    Morgen, 26 September, Mittwoch

    Zeit Temperatur Niederschläge Wind Luftdruck Luftfeuchtigkeit
    00:00 +5°C° 0 mm 1 m/S 731 mmHg 79%
    01:00 +4°C° 0 mm 1 m/S 731 mmHg 79%
    02:00 +4°C° 0 mm 1 m/S 730 mmHg 79%
    03:00 +4°C° 0 mm 1 m/S 730 mmHg 78%
    04:00 +4°C° 0 mm 1 m/S 730 mmHg 78%
    05:00 +4°C° 0 mm 1 m/S 730 mmHg 77%
    06:00 +4°C° 0 mm 1 m/S 730 mmHg 76%
    07:00 +4°C° 0 mm 1 m/S 730 mmHg 74%
    08:00 +5°C° 0 mm 2 m/S 730 mmHg 67%
    09:00 +8°C° 0 mm 2 m/S 730 mmHg 59%
    10:00 +10°C° 0 mm 3 m/S 730 mmHg 51%
    11:00 +11°C° 0 mm 3 m/S 730 mmHg 48%
    12:00 +13°C° 0 mm 3 m/S 730 mmHg 44%
    13:00 +14°C° 0 mm 3 m/S 730 mmHg 41%
    14:00 +14°C° 0 mm 3 m/S 729 mmHg 42%
    15:00 +14°C° 0 mm 3 m/S 729 mmHg 43%
    16:00 +16°C° 0 mm 3 m/S 728 mmHg 45%
    17:00 +14°C° 0 mm 2 m/S 728 mmHg 51%
    18:00 +12°C° 0 mm 2 m/S 728 mmHg 57%
    19:00 +9°C° 0 mm 2 m/S 727 mmHg 63%
    20:00 +8°C° 0 mm 2 m/S 728 mmHg 62%
    21:00 +8°C° 0 mm 2 m/S 728 mmHg 62%
    22:00 +7°C° 0 mm 2 m/S 728 mmHg 62%
    23:00 +7°C° 0 mm 2 m/S 728 mmHg 61%

    übermorgen, 27 September, Donnerstag

    Zeit Temperatur Niederschläge Wind Luftdruck Luftfeuchtigkeit
    00:00 +7°C° 0 mm 2 m/S 728 mmHg 60%
    01:00 +7°C° 0 mm 2 m/S 728 mmHg 60%
    02:00 +7°C° 0 mm 2 m/S 727 mmHg 60%
    03:00 +8°C° 0 mm 1 m/S 727 mmHg 60%
    04:00 +7°C° 0 mm 1 m/S 727 mmHg 60%
    05:00 +8°C° 0 mm 1 m/S 727 mmHg 61%
    06:00 +8°C° 0 mm 1 m/S 727 mmHg 61%
    07:00 +8°C° 0 mm 1 m/S 727 mmHg 62%
    08:00 +10°C° 0 mm 1 m/S 727 mmHg 57%
    09:00 +13°C° 0 mm 2 m/S 727 mmHg 51%
    10:00 +15°C° 0 mm 2 m/S 727 mmHg 46%
    11:00 +17°C° 0 mm 2 m/S 727 mmHg 43%
    12:00 +18°C° 0 mm 2 m/S 727 mmHg 41%
    13:00 +19°C° 0 mm 2 m/S 727 mmHg 38%
    14:00 +19°C° 0 mm 2 m/S 726 mmHg 40%
    15:00 +19°C° 0 mm 2 m/S 725 mmHg 42%
    16:00 +19°C° 0 mm 2 m/S 725 mmHg 44%
    17:00 +17°C° 0 mm 2 m/S 724 mmHg 50%
    18:00 +14°C° 0 mm 2 m/S 723 mmHg 56%
    19:00 +12°C° 0 mm 1 m/S 723 mmHg 62%
    20:00 +10°C° 0 mm 2 m/S 723 mmHg 62%
    21:00 +10°C° 0 mm 2 m/S 722 mmHg 62%
    22:00 +9°C° 0 mm 2 m/S 722 mmHg 62%
    23:00 +9°C° 0 mm 2 m/S 722 mmHg 64%

    28 September, Freitag

    Zeit Temperatur Niederschläge Wind Luftdruck Luftfeuchtigkeit
    00:00 +9°C° 0 mm 2 m/S 721 mmHg 65%
    01:00 +8°C° 0 mm 2 m/S 721 mmHg 67%
    02:00 +8°C° 0 mm 2 m/S 720 mmHg 71%
    03:00 +7°C° 0 mm 2 m/S 720 mmHg 75%
    04:00 +8°C° 0 mm 1 m/S 720 mmHg 78%
    05:00 +8°C° 0 mm 1 m/S 720 mmHg 81%
    06:00 +8°C° 0 mm 1 m/S 720 mmHg 83%
    07:00 +8°C° 0 mm 1 m/S 720 mmHg 85%
    08:00 +10°C° 0 mm 1 m/S 721 mmHg 76%
    09:00 +12°C° 0 mm 2 m/S 721 mmHg 68%
    10:00 +14°C° 0 mm 2 m/S 721 mmHg 59%
    11:00 +15°C° 0 mm 2 m/S 721 mmHg 59%
    12:00 +14°C° 0 mm 3 m/S 721 mmHg 59%
    13:00 +16°C° 0 mm 3 m/S 721 mmHg 59%
    14:00 +14°C° 0 mm 3 m/S 721 mmHg 62%
    15:00 +13°C° 0 mm 3 m/S 721 mmHg 65%
    16:00 +13°C° 0 mm 3 m/S 721 mmHg 69%
    17:00 +11°C° 0 mm 3 m/S 721 mmHg 73%
    18:00 +10°C° 0 mm 2 m/S 721 mmHg 78%
    19:00 +9°C° 0 mm 2 m/S 721 mmHg 83%
    20:00 +8°C° 0 mm 2 m/S 722 mmHg 84%
    21:00 +7°C° 0 mm 2 m/S 722 mmHg 85%
    22:00 +6°C° 0 mm 2 m/S 722 mmHg 87%
    23:00 +6°C° 0 mm 2 m/S 723 mmHg 87%

    29 September, Samstag

    Zeit Temperatur Niederschläge Wind Luftdruck Luftfeuchtigkeit
    00:00 +5°C° 0 mm 2 m/S 723 mmHg 88%
    01:00 +5°C° 0 mm 2 m/S 723 mmHg 89%
    02:00 +4°C° 0 mm 2 m/S 723 mmHg 90%
    03:00 +5°C° 0 mm 1 m/S 723 mmHg 90%
    04:00 +4°C° 0 mm 1 m/S 723 mmHg 91%
    05:00 +4°C° 0 mm 1 m/S 724 mmHg 91%
    06:00 +4°C° 0 mm 1 m/S 724 mmHg 91%
    07:00 +4°C° 0 mm 1 m/S 724 mmHg 91%
    08:00 +5°C° 0 mm 2 m/S 724 mmHg 81%
    09:00 +7°C° 0 mm 2 m/S 725 mmHg 72%
    10:00 +9°C° 0 mm 3 m/S 725 mmHg 62%
    11:00 +10°C° 0 mm 3 m/S 725 mmHg 57%
    12:00 +11°C° 0 mm 3 m/S 725 mmHg 52%
    13:00 +12°C° 0 mm 3 m/S 724 mmHg 47%
    14:00 +12°C° 0 mm 3 m/S 724 mmHg 48%
    15:00 +12°C° 0 mm 3 m/S 724 mmHg 48%
    16:00 +12°C° 0 mm 3 m/S 723 mmHg 49%
    17:00 +10°C° 0 mm 3 m/S 723 mmHg 55%
    18:00 +8°C° 0 mm 3 m/S 723 mmHg 61%
    19:00 +6°C° 0 mm 2 m/S 723 mmHg 67%
    20:00 +6°C° 0 mm 2 m/S 723 mmHg 68%
    21:00 +5°C° 0 mm 2 m/S 723 mmHg 69%
    22:00 +5°C° 0 mm 2 m/S 723 mmHg 70%
    23:00 +4°C° 0 mm 2 m/S 722 mmHg 71%

    30 September, Sonntag

    Zeit Temperatur Niederschläge Wind Luftdruck Luftfeuchtigkeit
    00:00 +4°C° 0 mm 2 m/S 722 mmHg 73%
    01:00 +5°C° 0 mm 1 m/S 722 mmHg 74%
    02:00 +4°C° 0 mm 1 m/S 721 mmHg 75%
    03:00 +4°C° 0 mm 1 m/S 721 mmHg 76%
    04:00 +4°C° 0 mm 1 m/S 721 mmHg 78%
    05:00 +4°C° 0 mm 1 m/S 720 mmHg 78%
    06:00 +4°C° 0 mm 1 m/S 720 mmHg 78%
    07:00 +4°C° 0 mm 1 m/S 720 mmHg 78%
    08:00 +6°C° 0 mm 1 m/S 720 mmHg 69%
    09:00 +9°C° 0 mm 1 m/S 720 mmHg 60%
    10:00 +10°C° 0 mm 2 m/S 720 mmHg 51%
    11:00 +12°C° 0 mm 2 m/S 720 mmHg 47%
    12:00 +14°C° 0 mm 2 m/S 719 mmHg 43%
    13:00 +15°C° 0 mm 2 m/S 719 mmHg 39%
    14:00 +15°C° 0 mm 2 m/S 719 mmHg 41%
    15:00 +15°C° 0 mm 2 m/S 718 mmHg 42%
    16:00 +15°C° 0 mm 2 m/S 718 mmHg 44%
    17:00 +13°C° 0 mm 2 m/S 717 mmHg 52%
    18:00 +10°C° 0 mm 1 m/S 717 mmHg 59%
    19:00 +8°C° 0 mm 1 m/S 717 mmHg 67%
    20:00 +7°C° 0 mm 1 m/S 717 mmHg 70%
    21:00 +7°C° 0 mm 1 m/S 717 mmHg 72%
    22:00 +6°C° 0 mm 1 m/S 716 mmHg 74%
    23:00 +6°C° 0 mm 1 m/S 716 mmHg 75%
    Mehr zeigen